Weather History for St. Francis, KS

Change the Weather History Date:

Sunday, December 30, 2012

  Actual Average Record
Temperature  
Mean Temperature 24 °F -  
Max Temperature 32 °F 36 °F 48 °F (2013)
Min Temperature 16 °F 12 °F 16 °F (2012)
Degree Days  
Heating Degree Days 41    
Moisture  
Dew Point 16 °F    
Average Humidity 69    
Maximum Humidity 86    
Minimum Humidity 51    
Precipitation  
Precipitation 0.00 in - - ()
Sea Level Pressure  
Sea Level Pressure 29.97 in    
Wind  
Wind Speed 7 mph (WSW)    
Max Wind Speed 17 mph    
Max Gust Speed -    
Visibility 10 miles    
Events      
Averages and records for this station are not official NWS values.
T = Trace of Precipitation, MM = Missing Value Source: NWS Daily Summary

Daily Weather History Graph

Daily Weather History Graph

Search for Another Location

Airport:

Trip Planner

Search our weather history database for the weather conditions in past years. The results will help you decide how hot, cold, wet, or windy it might be!

Date:

Astronomy

Dec. 30, 2012 Rise Set
Actual Time 8:08 AM CST 5:32 PM CST
Civil Twilight 7:37 AM CST 6:02 PM CST
Nautical Twilight 7:03 AM CST 6:36 PM CST
Astronomical Twilight 6:31 AM CST 7:09 PM CST
Moon 8:04 PM CST (12/30) 9:18 AM CST (12/30)
Length of Visible Light 10h 24m
Length of Day
9h 23m
Waning Gibbous, 95% of the Moon is Illuminated
Dec 30
Waning Gibbous
Jan 4
Last Quarter
Jan 11
New
Jan 18
First Quarter
Jan 26
Full

Hourly Weather History & Observations

Time (CST) Temp. Windchill Dew Point Humidity Pressure Visibility Wind Dir Wind Speed Gust Speed Precip Events Conditions
12:15 AM 24.3 °F 13.9 °F 17.2 °F 75% 29.98 in 10.0 mi South 10.4 mph - N/A   Clear
12:35 AM 26.2 °F 17.8 °F 18.1 °F 71% 29.98 in 10.0 mi South 8.1 mph - N/A   Clear
12:55 AM 25.7 °F 14.6 °F 18.3 °F 74% 29.97 in 10.0 mi South 12.7 mph - N/A   Clear
1:15 AM 25.7 °F 12.7 °F 18.3 °F 74% 29.94 in 10.0 mi SSE 17.3 mph - N/A   Clear
1:35 AM 25.7 °F 13.5 °F 18.5 °F 74% 29.93 in 10.0 mi SSE 15.0 mph - N/A   Clear
1:55 AM 26.1 °F 16.8 °F 18.5 °F 73% 29.93 in 10.0 mi South 9.2 mph - N/A   Clear
2:15 AM 24.3 °F 18.4 °F 18.0 °F 77% 29.92 in 10.0 mi SW 4.6 mph - N/A   Clear
2:35 AM 24.1 °F 19.7 °F 18.0 °F 77% 29.92 in 10.0 mi South 3.5 mph - N/A   Clear
2:55 AM 22.3 °F 11.5 °F 17.1 °F 80% 29.91 in 10.0 mi South 10.4 mph - N/A   Clear
3:15 AM 23.0 °F 17.0 °F 17.2 °F 79% 29.91 in 10.0 mi SSW 4.6 mph - N/A   Clear
3:35 AM 21.0 °F 14.6 °F 16.2 °F 81% 29.92 in 10.0 mi WNW 4.6 mph - N/A   Clear
3:55 AM 22.3 °F - 17.1 °F 80% 29.92 in 10.0 mi Calm Calm - N/A   Clear
4:15 AM 20.5 °F 14.0 °F 16.2 °F 83% 29.93 in 10.0 mi SW 4.6 mph - N/A   Clear
4:35 AM 18.7 °F 9.5 °F 15.1 °F 86% 29.91 in 10.0 mi SSW 6.9 mph - N/A   Clear
4:55 AM 18.3 °F 5.9 °F 14.0 °F 83% 29.88 in 10.0 mi South 11.5 mph - N/A   Clear
5:15 AM 20.8 °F 10.4 °F 15.4 °F 80% 29.88 in 10.0 mi SSW 9.2 mph - N/A   Clear
5:35 AM 18.1 °F 7.1 °F 13.3 °F 81% 29.89 in 10.0 mi WSW 9.2 mph - N/A   Clear
6:15 AM 17.2 °F 2.7 °F 12.4 °F 81% 29.92 in 10.0 mi WSW 15.0 mph - N/A   Clear
6:35 AM 16.7 °F 3.8 °F 10.8 °F 77% 29.92 in 10.0 mi West 11.5 mph - N/A   Clear
6:55 AM 16.7 °F 6.2 °F 10.2 °F 76% 29.93 in 10.0 mi West 8.1 mph - N/A   Clear
7:35 AM 17.8 °F 7.5 °F 10.6 °F 73% 29.95 in 10.0 mi SW 8.1 mph - N/A   Clear
7:55 AM 18.5 °F 10.4 °F 10.8 °F 72% 29.95 in 10.0 mi WSW 5.8 mph - N/A   Clear
8:15 AM 18.7 °F 9.5 °F 10.9 °F 72% 29.95 in 10.0 mi West 6.9 mph - N/A   Clear
8:35 AM 19.6 °F 10.6 °F 11.1 °F 70% 29.95 in 10.0 mi West 6.9 mph - N/A   Clear
8:55 AM 18.5 °F 10.4 °F 10.4 °F 71% 29.96 in 10.0 mi West 5.8 mph - N/A   Clear
9:15 AM 18.9 °F 9.8 °F 10.6 °F 70% 29.95 in 10.0 mi West 6.9 mph - N/A   Clear
9:55 AM 20.3 °F 11.5 °F 11.3 °F 68% 29.97 in 10.0 mi West 6.9 mph - N/A   Clear
10:35 AM 23.2 °F 16.0 °F 12.6 °F 64% 29.98 in 10.0 mi WSW 5.8 mph - N/A   Clear
10:55 AM 24.4 °F 15.6 °F 13.5 °F 63% 29.99 in 10.0 mi SW 8.1 mph - N/A   Clear
11:15 AM 25.7 °F 16.4 °F 14.4 °F 62% 30.00 in 10.0 mi WSW 9.2 mph - N/A   Clear
11:35 AM 26.2 °F 18.6 °F 14.9 °F 62% 29.99 in 10.0 mi West 6.9 mph - N/A   Clear
11:55 AM 27.5 °F 20.2 °F 15.8 °F 61% 30.00 in 10.0 mi SW 6.9 mph - N/A   Clear
12:15 PM 28.8 °F 21.7 °F 15.8 °F 58% 29.99 in 10.0 mi SW 6.9 mph - N/A   Clear
12:35 PM 30.0 °F 24.1 °F 15.8 °F 56% 29.98 in 10.0 mi West 5.8 mph - N/A   Clear
12:55 PM 30.2 °F 25.4 °F 15.8 °F 55% 29.97 in 10.0 mi WSW 4.6 mph - N/A   Clear
1:15 PM 31.1 °F 25.4 °F 16.0 °F 54% 29.97 in 10.0 mi WSW 5.8 mph - N/A   Clear
1:55 PM 32.0 °F 26.4 °F 16.7 °F 53% 29.98 in 10.0 mi SW 5.8 mph - N/A   Clear
2:15 PM 32.0 °F 26.4 °F 16.5 °F 53% 29.97 in 10.0 mi WSW 5.8 mph - N/A   Clear
2:35 PM 32.4 °F 27.9 °F 16.7 °F 53% 29.98 in 10.0 mi SW 4.6 mph - N/A   Clear
2:55 PM 32.9 °F 29.8 °F 16.7 °F 51% 29.98 in 10.0 mi SW 3.5 mph - N/A   Clear
3:15 PM 32.9 °F 28.5 °F 18.1 °F 55% 29.98 in 10.0 mi WSW 4.6 mph - N/A   Clear
3:35 PM 32.9 °F - 17.1 °F 52% 29.98 in 10.0 mi Calm Calm - N/A   Clear
3:55 PM 32.9 °F 29.8 °F 18.3 °F 55% 29.99 in 10.0 mi SW 3.5 mph - N/A   Clear
4:15 PM 32.2 °F 28.9 °F 18.7 °F 58% 29.99 in 10.0 mi SW 3.5 mph - N/A   Clear
4:35 PM 32.0 °F - 19.4 °F 60% 30.00 in 10.0 mi Calm Calm - N/A   Clear
4:55 PM 32.0 °F 28.7 °F 17.2 °F 55% 29.99 in 10.0 mi NNW 3.5 mph - N/A   Clear
5:15 PM 30.4 °F - 19.0 °F 63% 30.00 in 10.0 mi Calm Calm - N/A   Scattered Clouds
5:35 PM 29.7 °F - 19.9 °F 67% 30.00 in 10.0 mi Calm Calm - N/A   Scattered Clouds
5:55 PM 30.7 °F - 18.7 °F 61% 30.00 in 10.0 mi Calm Calm - N/A   Clear
6:15 PM 29.1 °F 25.4 °F 20.1 °F 69% 30.01 in 10.0 mi North 3.5 mph - N/A   Clear
6:35 PM 28.8 °F - 19.8 °F 69% 30.02 in 10.0 mi Calm Calm - N/A   Clear
6:55 PM 29.3 °F - 19.2 °F 66% 30.02 in 10.0 mi Calm Calm - N/A   Scattered Clouds
7:15 PM 29.1 °F 25.4 °F 19.4 °F 67% 30.02 in 10.0 mi NNW 3.5 mph - N/A   Scattered Clouds
7:35 PM 27.9 °F 21.5 °F 19.4 °F 71% 30.02 in 10.0 mi North 5.8 mph - N/A   Scattered Clouds
7:55 PM 28.0 °F 21.7 °F 18.9 °F 68% 30.02 in 10.0 mi North 5.8 mph - N/A   Clear
8:15 PM 27.7 °F 21.3 °F 18.1 °F 67% 30.02 in 10.0 mi NNE 5.8 mph - N/A   Scattered Clouds
8:35 PM 27.3 °F 23.4 °F 17.6 °F 67% 30.03 in 10.0 mi NNE 3.5 mph - N/A   Scattered Clouds
8:55 PM 25.5 °F 19.9 °F 17.4 °F 71% 30.03 in 10.0 mi North 4.6 mph - N/A   Scattered Clouds
9:15 PM 24.3 °F 17.3 °F 16.2 °F 71% 30.04 in 10.0 mi NNE 5.8 mph - N/A   Scattered Clouds
9:35 PM 22.8 °F 16.7 °F 15.6 °F 74% 30.05 in 10.0 mi North 4.6 mph - N/A   Clear
9:55 PM 22.6 °F 18.0 °F 15.6 °F 74% 30.04 in 10.0 mi NNE 3.5 mph - N/A   Clear
10:15 PM 21.2 °F - 14.9 °F 77% 30.04 in 10.0 mi Calm Calm - N/A   Clear
10:35 PM 21.2 °F - 14.9 °F 77% 30.03 in 10.0 mi Calm Calm - N/A   Clear
10:55 PM 20.3 °F 13.8 °F 14.7 °F 79% 30.04 in 10.0 mi North 4.6 mph - N/A   Clear
11:15 PM 18.9 °F 12.1 °F 13.6 °F 80% 30.05 in 10.0 mi North 4.6 mph - N/A   Clear